RYR4GB EBCI-LGAV

Flight info

Callsign RYR4GB
Flight time N/A
Altitude 35000
Route SOPOK Y863 OGLOR DCT EMGOD L607 ULNOK DCT VIBOM DCT NOMBO DCT RIDAR DCT RADIZ DCT LUMUS DCT GORPA DCT OKSIG DCT MARIL DCT BOSNA DCT PODOB DCT MEDUX UM867 KOGAT DCT TALAS UM749 ROPOX
Aircraft B738/M-SDE3FGILRWY/SB1

Departure

Time 2026-05-06 19:24
Airport Brussels South Charleroi Airport (EBCI)

Arrival

Time N/A
Airport Athens Eleftherios Venizelos International Airport (LGAV)
Time Latitude Longitude Altitude Speed Heading
2026-05-06 18:57 50.46804 4.46876 586 ft 0 kts 335°
2026-05-06 19:15 50.46796 4.46881 586 ft 2 kts 341°
2026-05-06 19:15 50.46782 4.46889 586 ft 2 kts 353°
2026-05-06 19:15 50.46767 4.46888 586 ft 2 kts 14°
2026-05-06 19:16 50.46753 4.46881 586 ft 2 kts 31°
2026-05-06 19:16 50.46742 4.46865 586 ft 2 kts 58°
2026-05-06 19:16 50.46736 4.46843 586 ft 2 kts 68°
2026-05-06 19:16 50.46732 4.46829 586 ft 0 kts 62°
2026-05-06 19:17 50.46730 4.46822 586 ft 0 kts 64°
2026-05-06 19:19 50.46734 4.46835 586 ft 5 kts 64°
2026-05-06 19:20 50.46762 4.46937 586 ft 15 kts 65°
2026-05-06 19:20 50.46811 4.47102 586 ft 16 kts 65°
2026-05-06 19:20 50.46856 4.47260 586 ft 15 kts 67°
2026-05-06 19:20 50.46900 4.47410 586 ft 14 kts 65°
2026-05-06 19:21 50.46937 4.47551 586 ft 11 kts 86°
2026-05-06 19:21 50.46898 4.47618 586 ft 6 kts 154°
2026-05-06 19:21 50.46861 4.47644 586 ft 5 kts 155°
2026-05-06 19:21 50.46854 4.47649 586 ft 2 kts 155°
2026-05-06 19:22 50.46820 4.47672 586 ft 8 kts 155°
2026-05-06 19:22 50.46750 4.47722 586 ft 12 kts 155°
2026-05-06 19:22 50.46708 4.47750 586 ft 3 kts 173°
2026-05-06 19:22 50.46690 4.47710 586 ft 6 kts 247°
2026-05-06 19:23 50.46690 4.47708 586 ft 0 kts 245°
2026-05-06 19:23 50.46652 4.47576 586 ft 42 kts 245°
2026-05-06 19:23 50.46436 4.46833 595 ft 105 kts 245°
2026-05-06 19:24 50.46055 4.45519 620 ft 156 kts 245°
2026-05-06 19:24 50.45572 4.43864 966 ft 170 kts 247°
2026-05-06 19:24 50.45066 4.42118 1439 ft 183 kts 249°
2026-05-06 19:24 50.44550 4.40239 1904 ft 197 kts 248°
2026-05-06 19:25 50.43982 4.38221 2435 ft 207 kts 249°
2026-05-06 19:25 50.43385 4.36149 3041 ft 213 kts 249°
2026-05-06 19:25 50.42766 4.34042 3683 ft 213 kts 248°
2026-05-06 19:25 50.42149 4.31955 4295 ft 214 kts 248°
2026-05-06 19:26 50.41412 4.29858 4750 ft 225 kts 234°
2026-05-06 19:26 50.40233 4.28162 5100 ft 241 kts 211°
2026-05-06 19:26 50.38591 4.27426 5424 ft 257 kts 176°
2026-05-06 19:26 50.36881 4.28263 5840 ft 265 kts 147°
2026-05-06 19:27 50.35342 4.29995 6224 ft 278 kts 138°
2026-05-06 19:27 50.33893 4.32014 6824 ft 283 kts 134°
2026-05-06 19:27 50.32497 4.34221 7439 ft 285 kts 128°
2026-05-06 19:27 50.31565 4.36902 8047 ft 283 kts 104°
2026-05-06 19:28 50.31148 4.39939 8667 ft 285 kts 97°
2026-05-06 19:28 50.30835 4.43006 9292 ft 288 kts 97°
2026-05-06 19:28 50.30466 4.46078 9904 ft 291 kts 99°
2026-05-06 19:28 50.30025 4.49196 10362 ft 301 kts 101°
2026-05-06 19:29 50.29522 4.52468 10706 ft 313 kts 102°
2026-05-06 19:29 50.29000 4.55752 11287 ft 317 kts 102°
2026-05-06 19:29 50.28458 4.59147 11867 ft 321 kts 102°
2026-05-06 19:29 50.27926 4.62509 12509 ft 324 kts 102°
2026-05-06 19:30 50.27381 4.65976 13129 ft 329 kts 102°
2026-05-06 19:30 50.26838 4.69450 13764 ft 332 kts 102°
2026-05-06 19:30 50.26286 4.72960 14408 ft 335 kts 103°
2026-05-06 19:30 50.25732 4.76473 15059 ft 338 kts 103°
2026-05-06 19:31 50.25164 4.80084 15683 ft 341 kts 103°
2026-05-06 19:31 50.24600 4.83659 16322 ft 343 kts 103°
2026-05-06 19:31 50.23439 4.90965 17452 ft 350 kts 104°
2026-05-06 19:32 50.22849 4.94650 17981 ft 354 kts 104°
2026-05-06 19:32 50.22247 4.98395 18550 ft 356 kts 104°
2026-05-06 19:32 50.21647 5.02115 19106 ft 359 kts 104°
2026-05-06 19:32 50.21032 5.05923 19610 ft 363 kts 104°
2026-05-06 19:33 50.20417 5.09723 20135 ft 365 kts 104°
2026-05-06 19:33 50.19794 5.13571 20635 ft 368 kts 104°
2026-05-06 19:33 50.19160 5.17478 21108 ft 372 kts 104°
2026-05-06 19:33 50.18527 5.21368 21614 ft 374 kts 104°
2026-05-06 19:34 50.17877 5.25347 22050 ft 379 kts 105°
2026-05-06 19:34 50.17228 5.29310 22522 ft 381 kts 105°
2026-05-06 19:34 50.16566 5.33331 22973 ft 384 kts 105°
2026-05-06 19:34 50.15906 5.37340 23442 ft 386 kts 105°
2026-05-06 19:35 50.15234 5.41413 23881 ft 389 kts 105°
2026-05-06 19:35 50.14553 5.45535 24332 ft 391 kts 105°
2026-05-06 19:35 50.13876 5.49623 24817 ft 392 kts 105°
2026-05-06 19:35 50.13189 5.53769 25270 ft 394 kts 105°
2026-05-06 19:36 50.12510 5.57845 25712 ft 396 kts 105°
2026-05-06 19:36 50.11808 5.62043 26149 ft 398 kts 105°
2026-05-06 19:36 50.11117 5.66171 26555 ft 400 kts 106°
2026-05-06 19:36 50.10407 5.70408 26961 ft 402 kts 106°
2026-05-06 19:37 50.09695 5.74642 27311 ft 405 kts 106°
2026-05-06 19:37 50.08984 5.78860 27769 ft 405 kts 106°
2026-05-06 19:37 50.08257 5.83163 28098 ft 409 kts 106°
2026-05-06 19:37 50.07533 5.87434 28463 ft 411 kts 106°
2026-05-06 19:38 50.06801 5.91747 28830 ft 412 kts 106°
2026-05-06 19:38 50.06071 5.96039 29172 ft 415 kts 106°
2026-05-06 19:38 50.05331 6.00379 29529 ft 416 kts 106°
2026-05-06 19:38 50.04590 6.04720 29899 ft 417 kts 106°
2026-05-06 19:39 50.03846 6.09066 30202 ft 420 kts 106°
2026-05-06 19:39 50.03084 6.13504 30506 ft 422 kts 106°
2026-05-06 19:39 50.02331 6.17879 30849 ft 423 kts 106°
2026-05-06 19:39 50.01567 6.22305 31147 ft 425 kts 106°
2026-05-06 19:40 50.00806 6.26705 31412 ft 427 kts 107°
2026-05-06 19:40 50.00034 6.31161 31667 ft 428 kts 106°
2026-05-06 19:40 49.99255 6.35640 31894 ft 430 kts 107°
2026-05-06 19:40 49.98463 6.40179 32119 ft 433 kts 107°
2026-05-06 19:41 49.97679 6.44670 32341 ft 435 kts 107°
2026-05-06 19:41 49.96890 6.49177 32580 ft 436 kts 106°
2026-05-06 19:41 49.96085 6.53765 32774 ft 438 kts 107°
2026-05-06 19:41 49.95287 6.58297 32976 ft 439 kts 107°
2026-05-06 19:42 49.94477 6.62883 33166 ft 440 kts 107°
2026-05-06 19:42 49.93675 6.67418 33338 ft 442 kts 107°
2026-05-06 19:42 49.92853 6.72049 33534 ft 442 kts 107°
2026-05-06 19:42 49.92047 6.76585 33718 ft 443 kts 107°
2026-05-06 19:43 49.91222 6.81219 33988 ft 441 kts 107°
2026-05-06 19:43 49.90412 6.85750 34165 ft 442 kts 108°
2026-05-06 19:43 49.89589 6.90345 34348 ft 442 kts 107°
2026-05-06 19:43 49.88768 6.94916 34564 ft 442 kts 108°
2026-05-06 19:44 49.87946 6.99479 34789 ft 441 kts 108°
2026-05-06 19:44 49.87112 7.04095 34857 ft 443 kts 108°
2026-05-06 19:44 49.85446 7.13290 34867 ft 440 kts 108°
2026-05-06 19:45 49.83796 7.22342 34866 ft 440 kts 108°
2026-05-06 19:45 49.82126 7.31456 34872 ft 441 kts 108°
2026-05-06 19:46 49.80442 7.40605 34864 ft 441 kts 108°
2026-05-06 19:46 49.78766 7.49676 34861 ft 440 kts 108°
2026-05-06 19:47 49.77076 7.58775 34868 ft 440 kts 108°
2026-05-06 19:47 49.75380 7.67862 34859 ft 438 kts 109°
2026-05-06 19:48 49.73678 7.76932 34851 ft 438 kts 109°
2026-05-06 19:48 49.71981 7.85933 34844 ft 437 kts 109°
2026-05-06 19:49 49.70276 7.94942 34854 ft 438 kts 109°
2026-05-06 19:49 49.68555 8.03985 34844 ft 438 kts 109°
2026-05-06 19:50 49.66829 8.13014 34852 ft 440 kts 109°
2026-05-06 19:50 49.65096 8.22041 34854 ft 439 kts 109°
2026-05-06 19:51 49.63356 8.31048 34855 ft 439 kts 109°
2026-05-06 19:51 49.61607 8.40059 34859 ft 439 kts 110°
2026-05-06 19:52 49.59865 8.48997 34858 ft 438 kts 110°
2026-05-06 19:52 49.58100 8.57996 34865 ft 439 kts 110°
2026-05-06 19:53 49.56335 8.66963 34855 ft 438 kts 111°
2026-05-06 19:53 49.54556 8.75954 34856 ft 439 kts 111°
2026-05-06 19:54 49.52776 8.84913 34842 ft 438 kts 111°
2026-05-06 19:54 49.50990 8.93861 35003 ft 440 kts 111°
2026-05-06 19:55 49.50087 8.98373 35266 ft 439 kts 111°
2026-05-06 19:55 49.49193 9.02827 35489 ft 438 kts 111°
2026-05-06 19:55 49.48294 9.07290 35676 ft 439 kts 111°
2026-05-06 19:55 49.47327 9.11757 35878 ft 437 kts 114°
2026-05-06 19:56 49.46190 9.16029 36062 ft 434 kts 119°
2026-05-06 19:56 49.44788 9.20113 36248 ft 432 kts 124°
2026-05-06 19:56 49.43213 9.24061 36405 ft 431 kts 126°
2026-05-06 19:56 49.41577 9.27893 36588 ft 430 kts 127°
2026-05-06 19:57 49.39905 9.31718 36758 ft 430 kts 128°
2026-05-06 19:57 49.38239 9.35508 36833 ft 431 kts 128°
2026-05-06 19:57 49.34881 9.43176 36841 ft 433 kts 127°
2026-05-06 19:58 49.31548 9.50849 36840 ft 432 kts 127°
2026-05-06 19:58 49.28237 9.58505 36850 ft 432 kts 127°
2026-05-06 19:59 49.24921 9.66170 36848 ft 431 kts 128°
2026-05-06 19:59 49.21614 9.73808 36849 ft 431 kts 128°
2026-05-06 20:00 49.19972 9.77595 36734 ft 428 kts 128°
2026-05-06 20:00 49.18331 9.81375 36850 ft 428 kts 128°
2026-05-06 20:00 49.15001 9.89018 36855 ft 433 kts 128°
2026-05-06 20:01 49.11665 9.96658 36854 ft 432 kts 128°
2026-05-06 20:01 49.08334 10.04255 36852 ft 432 kts 128°
2026-05-06 20:02 49.04676 10.11501 36848 ft 429 kts 136°
2026-05-06 20:02 49.00547 10.17993 36845 ft 426 kts 139°
2026-05-06 20:03 48.96315 10.24280 36846 ft 425 kts 140°
2026-05-06 20:03 48.92075 10.30578 36859 ft 425 kts 140°
2026-05-06 20:04 48.87886 10.36840 36861 ft 426 kts 139°
2026-05-06 20:04 48.83678 10.43154 36849 ft 425 kts 139°
2026-05-06 20:05 48.79466 10.49475 36851 ft 426 kts 139°
2026-05-06 20:05 48.75220 10.55839 36855 ft 426 kts 139°
2026-05-06 20:06 48.71014 10.62130 36858 ft 426 kts 139°
2026-05-06 20:06 48.66782 10.68445 36857 ft 426 kts 140°
2026-05-06 20:07 48.62555 10.74735 36859 ft 425 kts 140°
2026-05-06 20:07 48.58345 10.81075 36873 ft 428 kts 137°
2026-05-06 20:08 48.54476 10.87909 36883 ft 430 kts 134°
2026-05-06 20:08 48.50760 10.94969 36877 ft 431 kts 133°
2026-05-06 20:09 48.47030 11.02040 36882 ft 431 kts 134°
2026-05-06 20:09 48.43253 11.09099 36888 ft 431 kts 134°
2026-05-06 20:10 48.39472 11.16092 36883 ft 431 kts 134°
2026-05-06 20:10 48.35704 11.23023 36876 ft 430 kts 134°
2026-05-06 20:11 48.31900 11.29993 36880 ft 430 kts 134°
2026-05-06 20:11 48.28124 11.36896 36879 ft 429 kts 134°
2026-05-06 20:12 48.24333 11.43803 36878 ft 430 kts 134°
2026-05-06 20:12 48.20543 11.50690 36891 ft 431 kts 134°
2026-05-06 20:13 48.16718 11.57624 36911 ft 431 kts 134°
2026-05-06 20:13 48.12920 11.64495 36884 ft 430 kts 134°
2026-05-06 20:14 48.09094 11.71397 36896 ft 431 kts 135°
2026-05-06 20:14 48.05270 11.78275 36890 ft 433 kts 135°
2026-05-06 20:15 48.01426 11.85172 36895 ft 431 kts 135°
2026-05-06 20:15 47.97555 11.92101 36887 ft 432 kts 135°
2026-05-06 20:16 47.93739 11.98917 36891 ft 430 kts 135°
2026-05-06 20:16 47.89888 12.05775 36879 ft 429 kts 135°
2026-05-06 20:17 47.86058 12.12575 36886 ft 432 kts 135°
2026-05-06 20:17 47.82186 12.19433 36877 ft 432 kts 135°
2026-05-06 20:18 47.78313 12.26281 36889 ft 432 kts 135°
2026-05-06 20:18 47.74436 12.33113 36907 ft 433 kts 135°
2026-05-06 20:19 47.70554 12.39935 36894 ft 433 kts 135°
2026-05-06 20:19 47.66675 12.46742 36907 ft 431 kts 135°
2026-05-06 20:20 47.62817 12.53489 36915 ft 433 kts 135°
2026-05-06 20:20 47.58837 12.60139 36920 ft 430 kts 138°
2026-05-06 20:21 47.54750 12.66636 36918 ft 427 kts 139°
2026-05-06 20:21 47.50660 12.73095 36929 ft 430 kts 139°
2026-05-06 20:22 47.46612 12.79515 36916 ft 427 kts 139°
2026-05-06 20:22 47.42526 12.86002 36918 ft 430 kts 139°
2026-05-06 20:23 47.38441 12.92481 36917 ft 430 kts 139°
2026-05-06 20:23 47.34380 12.98917 36933 ft 429 kts 139°
2026-05-06 20:24 47.30297 13.05372 36937 ft 429 kts 139°
2026-05-06 20:24 47.26191 13.11847 36928 ft 431 kts 139°
2026-05-06 20:25 47.22109 13.18269 36909 ft 429 kts 139°
2026-05-06 20:25 47.18016 13.24690 36901 ft 432 kts 139°
2026-05-06 20:26 47.13897 13.31140 36894 ft 431 kts 139°
2026-05-06 20:26 47.09787 13.37552 36903 ft 432 kts 139°
2026-05-06 20:27 47.05658 13.43983 36902 ft 432 kts 139°
2026-05-06 20:27 47.01555 13.50363 36910 ft 432 kts 139°
2026-05-06 20:28 46.97435 13.56747 36903 ft 431 kts 139°
2026-05-06 20:28 46.93299 13.63143 36895 ft 432 kts 139°
2026-05-06 20:29 46.89164 13.69524 36903 ft 431 kts 139°
2026-05-06 20:29 46.85043 13.75867 36930 ft 433 kts 140°
2026-05-06 20:30 46.78825 13.85410 36915 ft 430 kts 140°
2026-05-06 20:31 46.74689 13.91737 36924 ft 432 kts 139°
2026-05-06 20:31 46.70560 13.98042 36929 ft 431 kts 139°
2026-05-06 20:32 46.66389 14.04391 36936 ft 433 kts 139°
2026-05-06 20:32 46.62250 14.10678 36927 ft 433 kts 139°
2026-05-06 20:33 46.58066 14.17018 36920 ft 432 kts 139°
2026-05-06 20:33 46.53857 14.23329 36924 ft 434 kts 140°
2026-05-06 20:34 46.49685 14.29546 36924 ft 433 kts 140°
2026-05-06 20:34 46.45469 14.35814 36928 ft 433 kts 140°
2026-05-06 20:35 46.41233 14.42098 36930 ft 434 kts 139°
2026-05-06 20:35 46.36997 14.48372 36919 ft 434 kts 139°
2026-05-06 20:36 46.32772 14.54620 36921 ft 436 kts 139°
2026-05-06 20:36 46.28548 14.60850 36926 ft 435 kts 139°
2026-05-06 20:37 46.24295 14.67108 36923 ft 436 kts 140°
2026-05-06 20:37 46.20056 14.73330 36923 ft 436 kts 140°
2026-05-06 20:38 46.15803 14.79559 36928 ft 435 kts 140°
2026-05-06 20:38 46.11543 14.85783 36916 ft 436 kts 140°
2026-05-06 20:39 46.07293 14.91977 36909 ft 437 kts 140°
2026-05-06 20:39 46.02988 14.98237 36909 ft 438 kts 140°
2026-05-06 20:40 45.98700 15.04458 36917 ft 441 kts 140°
2026-05-06 20:40 45.94402 15.10681 36928 ft 438 kts 140°
2026-05-06 20:41 45.90100 15.16897 36923 ft 437 kts 140°
2026-05-06 20:41 45.85811 15.23076 36920 ft 438 kts 140°
2026-05-06 20:42 45.81490 15.29287 36923 ft 436 kts 140°
2026-05-06 20:42 45.77200 15.35488 36926 ft 441 kts 138°
2026-05-06 20:43 45.73219 15.42202 36935 ft 445 kts 133°
2026-05-06 20:43 45.69423 15.49210 36938 ft 447 kts 132°
2026-05-06 20:44 45.65626 15.56241 36935 ft 446 kts 133°
2026-05-06 20:44 45.61779 15.63261 36926 ft 448 kts 133°
2026-05-06 20:45 45.57943 15.70191 36928 ft 446 kts 134°
2026-05-06 20:45 45.54064 15.77149 36919 ft 448 kts 134°
2026-05-06 20:46 45.50189 15.84074 36923 ft 448 kts 134°
2026-05-06 20:46 45.46322 15.90966 36920 ft 447 kts 134°
2026-05-06 20:47 45.42401 15.97930 36929 ft 451 kts 134°
2026-05-06 20:47 45.38479 16.04884 36921 ft 450 kts 134°
2026-05-06 20:48 45.34553 16.11828 36923 ft 452 kts 134°
2026-05-06 20:48 45.30600 16.18800 36934 ft 452 kts 134°
2026-05-06 20:49 45.26649 16.25755 36929 ft 452 kts 134°
2026-05-06 20:49 45.22695 16.32696 36939 ft 452 kts 134°
2026-05-06 20:50 45.18720 16.39658 36933 ft 453 kts 134°
2026-05-06 20:50 45.14746 16.46596 36935 ft 454 kts 134°
2026-05-06 20:51 45.10777 16.53514 36936 ft 454 kts 134°
2026-05-06 20:51 45.06772 16.60476 36940 ft 455 kts 134°
2026-05-06 20:52 45.02750 16.67446 36940 ft 455 kts 135°
2026-05-06 20:52 44.98772 16.74327 36937 ft 457 kts 135°
2026-05-06 20:53 44.94727 16.81302 36943 ft 458 kts 135°
2026-05-06 20:53 44.90724 16.88198 36962 ft 456 kts 135°
2026-05-06 20:54 44.86674 16.95151 36959 ft 458 kts 135°
2026-05-06 20:54 44.82650 17.02032 36962 ft 455 kts 135°
2026-05-06 20:55 44.78543 17.08796 36968 ft 456 kts 136°
2026-05-06 20:55 44.74395 17.15483 36957 ft 455 kts 136°
2026-05-06 20:56 44.70202 17.22231 36978 ft 457 kts 136°
2026-05-06 20:56 44.65985 17.29017 36977 ft 460 kts 136°
2026-05-06 20:57 44.61797 17.35774 36990 ft 458 kts 136°
2026-05-06 20:57 44.57619 17.42569 36992 ft 459 kts 135°
2026-05-06 20:58 44.53475 17.49331 36993 ft 459 kts 135°
2026-05-06 20:58 44.49294 17.56137 37018 ft 459 kts 135°
2026-05-06 20:59 44.45146 17.62865 37018 ft 458 kts 135°
2026-05-06 20:59 44.40965 17.69628 37007 ft 459 kts 135°
2026-05-06 21:00 44.36771 17.76392 37013 ft 459 kts 135°
2026-05-06 21:00 44.32642 17.83226 37013 ft 462 kts 134°
2026-05-06 21:01 44.28569 17.90133 37013 ft 462 kts 133°
2026-05-06 21:01 44.24505 17.97026 37012 ft 464 kts 133°
2026-05-06 21:02 44.20379 18.03985 37013 ft 465 kts 133°
2026-05-06 21:02 44.16244 18.10915 37019 ft 462 kts 133°
2026-05-06 21:03 44.12120 18.17795 37026 ft 462 kts 133°
2026-05-06 21:03 44.08002 18.24649 37038 ft 465 kts 133°
2026-05-06 21:04 44.03867 18.31515 37047 ft 463 kts 133°
2026-05-06 21:04 43.99721 18.38382 37057 ft 463 kts 133°
2026-05-06 21:05 43.95583 18.45224 37052 ft 462 kts 133°
2026-05-06 21:05 43.91448 18.52042 37060 ft 464 kts 133°
2026-05-06 21:06 43.87318 18.58839 37068 ft 463 kts 133°
2026-05-06 21:06 43.83189 18.65623 37062 ft 463 kts 134°
2026-05-06 21:07 43.79023 18.72442 37057 ft 464 kts 134°
2026-05-06 21:07 43.74871 18.79221 37053 ft 462 kts 134°
2026-05-06 21:08 43.70744 18.85946 37058 ft 461 kts 134°
2026-05-06 21:08 43.66571 18.92723 37063 ft 461 kts 133°
2026-05-06 21:09 43.62418 18.99459 37068 ft 462 kts 134°
2026-05-06 21:09 43.58299 19.06124 37065 ft 460 kts 133°
2026-05-06 21:10 43.54093 19.12835 37072 ft 461 kts 136°
2026-05-06 21:10 43.49472 19.18912 37063 ft 458 kts 142°
2026-05-06 21:11 43.44580 19.24468 37073 ft 457 kts 144°
2026-05-06 21:11 43.39643 19.29931 37077 ft 457 kts 144°
2026-05-06 21:12 43.34684 19.35440 37076 ft 457 kts 144°
2026-05-06 21:12 43.29753 19.40953 37076 ft 458 kts 144°
2026-05-06 21:13 43.24834 19.46468 37093 ft 458 kts 144°
2026-05-06 21:13 43.19919 19.51980 37085 ft 457 kts 144°
2026-05-06 21:14 43.14998 19.57489 37085 ft 460 kts 143°
2026-05-06 21:14 43.10036 19.63037 37081 ft 459 kts 143°
2026-05-06 21:15 43.05091 19.68555 37097 ft 460 kts 144°
2026-05-06 21:15 43.00119 19.74093 37095 ft 461 kts 144°
2026-05-06 21:16 42.95148 19.79616 37087 ft 461 kts 144°
2026-05-06 21:16 42.90210 19.85093 37094 ft 459 kts 144°
2026-05-06 21:17 42.85244 19.90585 37105 ft 460 kts 144°
2026-05-06 21:17 42.80280 19.96065 37121 ft 461 kts 144°
2026-05-06 21:18 42.75351 20.01684 37140 ft 463 kts 139°
2026-05-06 21:18 42.70956 20.08070 37151 ft 465 kts 132°
2026-05-06 21:19 42.66853 20.14850 37145 ft 466 kts 130°
2026-05-06 21:19 42.62772 20.21734 37128 ft 468 kts 130°
2026-05-06 21:20 42.58680 20.28572 37095 ft 468 kts 131°
2026-05-06 21:20 42.54555 20.35386 37083 ft 466 kts 131°
2026-05-06 21:21 42.50439 20.42142 37082 ft 467 kts 131°
2026-05-06 21:21 42.46274 20.48948 37075 ft 467 kts 131°
2026-05-06 21:22 42.42134 20.55690 37081 ft 467 kts 131°
2026-05-06 21:22 42.37975 20.62447 37075 ft 468 kts 130°
2026-05-06 21:23 42.33816 20.69186 37078 ft 469 kts 131°
2026-05-06 21:23 42.29640 20.75938 37065 ft 467 kts 131°
2026-05-06 21:24 42.25460 20.82687 37069 ft 469 kts 131°
2026-05-06 21:24 42.23388 20.86026 37434 ft 469 kts 131°
2026-05-06 21:24 42.21286 20.89412 37178 ft 471 kts 131°
2026-05-06 21:24 42.19197 20.92774 37068 ft 464 kts 131°
2026-05-06 21:25 42.17138 20.96081 37073 ft 463 kts 131°
2026-05-06 21:25 42.15040 20.99443 36690 ft 466 kts 131°
2026-05-06 21:25 42.12951 21.02665 37003 ft 463 kts 133°
2026-05-06 21:26 42.08129 21.08465 37069 ft 466 kts 146°
2026-05-06 21:26 42.02730 21.13204 37064 ft 461 kts 151°
2026-05-06 21:27 41.97210 21.17687 37063 ft 463 kts 151°
2026-05-06 21:27 41.91690 21.22178 37320 ft 467 kts 150°
2026-05-06 21:27 41.88910 21.24461 37069 ft 465 kts 150°
2026-05-06 21:28 41.86201 21.26705 36818 ft 458 kts 150°
2026-05-06 21:28 41.83491 21.28958 37076 ft 458 kts 150°
2026-05-06 21:28 41.80760 21.31233 37075 ft 462 kts 150°